Eagle, AK

6:24 PM AKDT on April 23, 2017 (GMT -0800)
Eagle

Weather History for PAEG - December, 2012

Change the Weather History Date:

Monday, December 17, 2012

  Actual Average (PABN) Record (PABN)
Temperature  
Mean Temperature -26 °F -  
Max Temperature -17 °F 4 °F 24 °F (2005)
Min Temperature -36 °F 0 °F -25 °F (1998)
Degree Days  
Heating Degree Days 92    
Moisture  
Dew Point -29 °F    
Average Humidity 67    
Maximum Humidity 70    
Minimum Humidity 60    
Precipitation  
Precipitation 0.00 in - - ()
Sea Level Pressure  
Sea Level Pressure 29.96 in    
Wind  
Wind Speed 1 mph (ESE)    
Max Wind Speed 15 mph    
Max Gust Speed 26 mph    
Visibility 7 miles    
Events Snow    
Averages and records for this station are not official NWS values.
T = Trace of Precipitation, MM = Missing Value Source: NWS Daily Summary

Daily Weather History Graph

Daily Weather History Graph

Search for Another Location

Airport or City:

Trip Planner

Search our weather history database for the weather conditions in past years. The results will help you decide how hot, cold, wet, or windy it might be!

Date:

Astronomy

Dec. 17, 2012 Rise Set
Actual Time 10:27 AM AKST 2:14 PM AKST
Civil Twilight 9:03 AM AKST 3:38 PM AKST
Nautical Twilight 7:51 AM AKST 4:50 PM AKST
Astronomical Twilight 6:50 AM AKST 5:51 PM AKST
Moon 11:35 AM AKST (12/17) 10:01 PM AKST (12/17)
Length of Visible Light 6h 35m
Length of Day
3h 46m
Waxing Crescent, 26% of the Moon is Illuminated
Dec 17
Waxing Crescent
Dec 19
First Quarter
Dec 28
Full
Jan 4
Last Quarter
Jan 11
New

Hourly Weather History & Observations

Time (AKST) Temp. Windchill Dew Point Humidity Pressure Visibility Wind Dir Wind Speed Gust Speed Precip Events Conditions
12:53 AM -18.9 °F - -26.0 °F 70% 29.94 in 3.0 mi Calm Calm - N/A   Haze
1:53 AM -18.9 °F - -27.0 °F 66% 29.95 in 4.0 mi Calm Calm - 0.00 in Snow Light Snow
3:32 AM -20.2 °F - -27.4 °F 69% 29.85 in 2.5 mi Calm Calm - 0.00 in Snow Light Snow
3:46 AM -20.2 °F - -27.4 °F 69% 29.85 in 3.0 mi Calm Calm - 0.00 in Snow Light Snow
3:53 AM -20.0 °F - -27.0 °F 70% 29.96 in 3.0 mi Calm Calm - 0.00 in   Haze
4:53 AM -22.0 °F - -29.0 °F 70% 29.96 in 10.0 mi Calm Calm - N/A   Overcast
5:53 AM -20.0 °F - -27.9 °F 67% 29.98 in 5.0 mi Calm Calm - 0.00 in Snow Light Snow
6:53 AM -20.9 °F - -29.0 °F 66% 29.99 in 5.0 mi Calm Calm - 0.00 in Snow Light Snow
7:53 AM -23.1 °F - -29.9 °F 70% 29.99 in 6.0 mi Calm Calm - 0.00 in Snow Light Snow
8:53 AM -27.0 °F - -34.1 °F 69% 30.01 in 10.0 mi Calm Calm - 0.00 in   Overcast
9:53 AM -27.0 °F - -35.0 °F 66% 30.01 in 10.0 mi Calm Calm - N/A   Overcast
10:53 AM -26.0 °F - -33.0 °F 69% 30.02 in 10.0 mi Calm Calm - N/A   Overcast
11:53 AM -25.1 °F - -32.1 °F 70% 30.02 in 5.0 mi Calm Calm - N/A   Haze
12:53 PM -25.1 °F - -32.1 °F 70% 30.02 in 10.0 mi Calm Calm - N/A   Overcast
3:53 PM -34.1 °F -46.8 °F - N/A% 30.00 in 10.0 mi South 3.5 mph - N/A   Clear
4:53 PM -35.0 °F - - N/A% 30.00 in 10.0 mi Calm Calm - N/A   Clear
5:53 PM -36.0 °F - - N/A% 29.99 in 10.0 mi Calm Calm - N/A   Clear
6:53 PM -33.0 °F - - N/A% 29.97 in 10.0 mi Calm Calm - N/A   Clear
7:53 PM -17.0 °F -37.3 °F -26.0 °F 64% 29.94 in 3.0 mi ESE 10.4 mph 21.9 mph 0.00 in Snow Light Snow
8:53 PM -17.0 °F -41.1 °F -27.0 °F 60% 29.92 in 10.0 mi ESE 15.0 mph 24.2 mph 0.00 in   Clear
9:53 PM -18.0 °F -38.6 °F -27.0 °F 64% 29.92 in 10.0 mi ESE 10.4 mph 18.4 mph N/A   Clear
10:53 PM -18.9 °F -41.8 °F -27.9 °F 63% 29.92 in 10.0 mi East 12.7 mph 26.5 mph N/A   Clear
11:53 PM -18.9 °F -40.8 °F -27.9 °F 63% 29.90 in 10.0 mi East 11.5 mph 19.6 mph N/A   Clear